owner,sensor,date,latitude,longitude,air_temperature,qcFlag 
NDBC,ioos:station:wmo:42039:1,2019-07-01T00:50:00Z,28.7390,-86.0060,29.5,11111222 
NDBC,ioos:station:wmo:42039:1,2019-07-01T01:40:00Z,28.7390,-86.0060,29.4,11111222 
NDBC,ioos:station:wmo:42039:1,2019-07-01T02:50:00Z,28.7390,-86.0060,29.4,11111222 
NDBC,ioos:station:wmo:42039:1,2019-07-01T03:50:00Z,28.7390,-86.0060,29.4,11111222 
NDBC,ioos:station:wmo:42039:1,2019-07-01T04:50:00Z,28.7390,-86.0060,29.4,11111222 
NDBC,ioos:station:wmo:42039:1,2019-07-01T05:50:00Z,28.7390,-86.0060,29.4,11111222 
NDBC,ioos:station:wmo:42039:1,2019-07-01T06:50:00Z,28.7390,-86.0060,29.4,11111222 
NDBC,ioos:station:wmo:42039:1,2019-07-01T07:50:00Z,28.7390,-86.0060,29.3,11111222 
NDBC,ioos:station:wmo:42039:1,2019-07-01T08:50:00Z,28.7390,-86.0060,28.5,11111222 
NDBC,ioos:station:wmo:42039:1,2019-07-01T09:50:00Z,28.7390,-86.0060,29.1,11111222 
NDBC,ioos:station:wmo:42039:1,2019-07-01T10:50:00Z,28.7390,-86.0060,29.2,11111222 
NDBC,ioos:station:wmo:42039:1,2019-07-01T11:50:00Z,28.7390,-86.0060,29.2,11111222 
NDBC,ioos:station:wmo:42039:1,2019-07-01T12:50:00Z,28.7390,-86.0060,29.2,11111222 
NDBC,ioos:station:wmo:42039:1,2019-07-01T13:50:00Z,28.7390,-86.0060,29.2,11111222 
NDBC,ioos:station:wmo:42039:1,2019-07-01T16:10:00Z,28.7390,-86.0060,29.1,11111222 
NDBC,ioos:station:wmo:42039:1,2019-07-01T17:00:00Z,28.7390,-86.0060,29.3,11111222 
NDBC,ioos:station:wmo:42039:1,2019-07-01T17:50:00Z,28.7390,-86.0060,29.4,11111222 
NDBC,ioos:station:wmo:42039:1,2019-07-01T18:50:00Z,28.7390,-86.0060,29.4,11111222 
NDBC,ioos:station:wmo:42039:1,2019-07-01T19:50:00Z,28.7390,-86.0060,29.3,11111222 
NDBC,ioos:station:wmo:42039:1,2019-07-01T20:50:00Z,28.7390,-86.0060,29.4,11111222 
NDBC,ioos:station:wmo:42039:1,2019-07-01T21:50:00Z,28.7390,-86.0060,29.3,11111222 
NDBC,ioos:station:wmo:42039:1,2019-07-01T22:50:00Z,28.7390,-86.0060,29.2,11111222 
NDBC,ioos:station:wmo:42039:1,2019-07-01T23:50:00Z,28.7390,-86.0060,29.2,11111222 
NDBC,ioos:station:wmo:42039:1,2019-07-02T00:50:00Z,28.7390,-86.0060,29.1,11111222 
NDBC,ioos:station:wmo:42039:1,2019-07-02T01:50:00Z,28.7390,-86.0060,29.1,11111222 
NDBC,ioos:station:wmo:42039:1,2019-07-02T02:50:00Z,28.7390,-86.0060,29.2,11111222 
NDBC,ioos:station:wmo:42039:1,2019-07-02T03:50:00Z,28.7390,-86.0060,29.2,11111222 
NDBC,ioos:station:wmo:42039:1,2019-07-02T04:40:00Z,28.7390,-86.0060,29.1,11111222 
NDBC,ioos:station:wmo:42039:1,2019-07-02T05:50:00Z,28.7390,-86.0060,29.1,11111222 
NDBC,ioos:station:wmo:42039:1,2019-07-02T06:50:00Z,28.7390,-86.0060,29.0,11111222 
NDBC,ioos:station:wmo:42039:1,2019-07-02T07:50:00Z,28.7390,-86.0060,29.0,11111222 
NDBC,ioos:station:wmo:42039:1,2019-07-02T08:50:00Z,28.7390,-86.0060,28.9,11111222 
NDBC,ioos:station:wmo:42039:1,2019-07-02T09:50:00Z,28.7390,-86.0060,28.9,11111222 
NDBC,ioos:station:wmo:42039:1,2019-07-02T10:50:00Z,28.7390,-86.0060,28.8,11111222 
NDBC,ioos:station:wmo:42039:1,2019-07-02T11:50:00Z,28.7390,-86.0060,28.9,11111222 
NDBC,ioos:station:wmo:42039:1,2019-07-02T12:50:00Z,28.7390,-86.0060,29.0,11111222 
NDBC,ioos:station:wmo:42039:1,2019-07-02T13:40:00Z,28.7390,-86.0060,29.0,11111222 
NDBC,ioos:station:wmo:42039:1,2019-07-02T14:50:00Z,28.7390,-86.0060,29.0,11111222 
NDBC,ioos:station:wmo:42039:1,2019-07-02T15:50:00Z,28.7390,-86.0060,29.1,11111222 
NDBC,ioos:station:wmo:42039:1,2019-07-02T16:50:00Z,28.7390,-86.0060,29.2,11111222 
NDBC,ioos:station:wmo:42039:1,2019-07-02T17:50:00Z,28.7390,-86.0060,29.1,11111222 
NDBC,ioos:station:wmo:42039:1,2019-07-02T18:50:00Z,28.7390,-86.0060,29.1,11111222 
NDBC,ioos:station:wmo:42039:1,2019-07-02T19:50:00Z,28.7390,-86.0060,29.3,11111222 
NDBC,ioos:station:wmo:42039:1,2019-07-02T20:50:00Z,28.7390,-86.0060,29.2,11111222 
NDBC,ioos:station:wmo:42039:1,2019-07-02T21:50:00Z,28.7390,-86.0060,29.3,11111222 
NDBC,ioos:station:wmo:42039:1,2019-07-02T22:50:00Z,28.7390,-86.0060,29.4,11111222 
NDBC,ioos:station:wmo:42039:1,2019-07-02T23:50:00Z,28.7390,-86.0060,29.3,11111222 
NDBC,ioos:station:wmo:42039:1,2019-07-03T00:50:00Z,28.7390,-86.0060,29.3,11111222 
NDBC,ioos:station:wmo:42039:1,2019-07-03T01:50:00Z,28.7390,-86.0060,29.2,11111222 
NDBC,ioos:station:wmo:42039:1,2019-07-03T02:50:00Z,28.7390,-86.0060,29.5,11111222 
NDBC,ioos:station:wmo:42039:1,2019-07-03T04:00:00Z,28.7390,-86.0060,29.4,11111222 
NDBC,ioos:station:wmo:42039:1,2019-07-03T04:50:00Z,28.7390,-86.0060,29.4,11111222 
NDBC,ioos:station:wmo:42039:1,2019-07-03T05:50:00Z,28.7390,-86.0060,29.3,11111222 
NDBC,ioos:station:wmo:42039:1,2019-07-03T06:50:00Z,28.7390,-86.0060,29.2,11111222 
NDBC,ioos:station:wmo:42039:1,2019-07-03T07:50:00Z,28.7390,-86.0060,29.1,11111222 
NDBC,ioos:station:wmo:42039:1,2019-07-03T08:50:00Z,28.7390,-86.0060,29.1,11111222 
NDBC,ioos:station:wmo:42039:1,2019-07-03T09:50:00Z,28.7390,-86.0060,28.9,11111222 
NDBC,ioos:station:wmo:42039:1,2019-07-03T10:50:00Z,28.7390,-86.0060,28.8,11111222 
NDBC,ioos:station:wmo:42039:1,2019-07-03T11:50:00Z,28.7390,-86.0060,28.9,11111222 
NDBC,ioos:station:wmo:42039:1,2019-07-03T12:50:00Z,28.7390,-86.0060,29.1,11111222 
NDBC,ioos:station:wmo:42039:1,2019-07-03T13:50:00Z,28.7390,-86.0060,29.1,11111222 
NDBC,ioos:station:wmo:42039:1,2019-07-03T14:20:00Z,28.7390,-86.0060,29.1,11111222 
NDBC,ioos:station:wmo:42039:1,2019-07-03T15:50:00Z,28.7390,-86.0060,29.2,11111222 
NDBC,ioos:station:wmo:42039:1,2019-07-03T16:50:00Z,28.7390,-86.0060,29.2,11111222 
NDBC,ioos:station:wmo:42039:1,2019-07-03T17:50:00Z,28.7390,-86.0060,29.2,11111222 
NDBC,ioos:station:wmo:42039:1,2019-07-03T18:50:00Z,28.7390,-86.0060,29.1,11111222 
NDBC,ioos:station:wmo:42039:1,2019-07-03T19:50:00Z,28.7390,-86.0060,29.3,11111222 
NDBC,ioos:station:wmo:42039:1,2019-07-03T20:50:00Z,28.7390,-86.0060,29.4,11111222 
NDBC,ioos:station:wmo:42039:1,2019-07-03T21:50:00Z,28.7390,-86.0060,29.4,11111222 
NDBC,ioos:station:wmo:42039:1,2019-07-03T22:50:00Z,28.7390,-86.0060,29.3,11111222 
NDBC,ioos:station:wmo:42039:1,2019-07-03T23:50:00Z,28.7390,-86.0060,29.3,11111222 
NDBC,ioos:station:wmo:42039:1,2019-07-04T00:50:00Z,28.7390,-86.0060,29.2,11111222 
NDBC,ioos:station:wmo:42039:1,2019-07-04T01:40:00Z,28.7390,-86.0060,29.2,11111222 
NDBC,ioos:station:wmo:42039:1,2019-07-04T02:50:00Z,28.7390,-86.0060,29.2,11111222 
NDBC,ioos:station:wmo:42039:1,2019-07-04T03:50:00Z,28.7390,-86.0060,29.2,11111222 
NDBC,ioos:station:wmo:42039:1,2019-07-04T04:50:00Z,28.7390,-86.0060,29.1,11111222 
NDBC,ioos:station:wmo:42039:1,2019-07-04T05:50:00Z,28.7390,-86.0060,28.9,11111222 
NDBC,ioos:station:wmo:42039:1,2019-07-04T06:50:00Z,28.7390,-86.0060,28.9,11111222 
NDBC,ioos:station:wmo:42039:1,2019-07-04T07:50:00Z,28.7390,-86.0060,29.0,11111222 
NDBC,ioos:station:wmo:42039:1,2019-07-04T08:50:00Z,28.7390,-86.0060,29.0,11111222 
NDBC,ioos:station:wmo:42039:1,2019-07-04T09:50:00Z,28.7390,-86.0060,29.0,11111222 
NDBC,ioos:station:wmo:42039:1,2019-07-04T10:50:00Z,28.7390,-86.0060,29.1,11111222 
NDBC,ioos:station:wmo:42039:1,2019-07-04T11:50:00Z,28.7390,-86.0060,29.3,11111222 
NDBC,ioos:station:wmo:42039:1,2019-07-04T12:50:00Z,28.7390,-86.0060,29.4,11111222 
NDBC,ioos:station:wmo:42039:1,2019-07-04T13:50:00Z,28.7390,-86.0060,29.3,11111222 
NDBC,ioos:station:wmo:42039:1,2019-07-04T14:50:00Z,28.7390,-86.0060,29.5,11111222 
NDBC,ioos:station:wmo:42039:1,2019-07-04T15:50:00Z,28.7390,-86.0060,29.7,11111222 
NDBC,ioos:station:wmo:42039:1,2019-07-04T16:50:00Z,28.7390,-86.0060,29.8,11111222 
NDBC,ioos:station:wmo:42039:1,2019-07-04T17:50:00Z,28.7390,-86.0060,29.9,11111222 
NDBC,ioos:station:wmo:42039:1,2019-07-04T18:50:00Z,28.7390,-86.0060,30.0,11111222 
NDBC,ioos:station:wmo:42039:1,2019-07-04T19:50:00Z,28.7390,-86.0060,29.9,11111222 
NDBC,ioos:station:wmo:42039:1,2019-07-04T20:50:00Z,28.7390,-86.0060,30.0,11111222 
NDBC,ioos:station:wmo:42039:1,2019-07-04T21:50:00Z,28.7390,-86.0060,30.2,11111222 
NDBC,ioos:station:wmo:42039:1,2019-07-04T22:50:00Z,28.7390,-86.0060,30.4,11111222 
NDBC,ioos:station:wmo:42039:1,2019-07-04T23:50:00Z,28.7390,-86.0060,30.3,11111222 
NDBC,ioos:station:wmo:42039:1,2019-07-05T00:50:00Z,28.7390,-86.0060,30.1,11111222 
NDBC,ioos:station:wmo:42039:1,2019-07-05T01:50:00Z,28.7390,-86.0060,30.0,11111222 
NDBC,ioos:station:wmo:42039:1,2019-07-05T02:50:00Z,28.7390,-86.0060,30.0,11111222 
NDBC,ioos:station:wmo:42039:1,2019-07-05T03:50:00Z,28.7390,-86.0060,29.9,11111222 
NDBC,ioos:station:wmo:42039:1,2019-07-05T04:50:00Z,28.7390,-86.0060,29.8,11111222 
NDBC,ioos:station:wmo:42039:1,2019-07-05T05:50:00Z,28.7390,-86.0060,29.6,11111222 
NDBC,ioos:station:wmo:42039:1,2019-07-05T06:50:00Z,28.7390,-86.0060,29.6,11111222 
NDBC,ioos:station:wmo:42039:1,2019-07-05T07:50:00Z,28.7390,-86.0060,29.5,11111222 
NDBC,ioos:station:wmo:42039:1,2019-07-05T08:50:00Z,28.7390,-86.0060,29.6,11111222 
NDBC,ioos:station:wmo:42039:1,2019-07-05T09:50:00Z,28.7390,-86.0060,29.6,11111222 
NDBC,ioos:station:wmo:42039:1,2019-07-05T10:50:00Z,28.7390,-86.0060,29.6,11111222 
NDBC,ioos:station:wmo:42039:1,2019-07-05T11:50:00Z,28.7390,-86.0060,29.7,11111222 
NDBC,ioos:station:wmo:42039:1,2019-07-05T12:50:00Z,28.7390,-86.0060,29.7,11111222 
NDBC,ioos:station:wmo:42039:1,2019-07-05T13:50:00Z,28.7390,-86.0060,29.9,11111222 
NDBC,ioos:station:wmo:42039:1,2019-07-05T14:50:00Z,28.7390,-86.0060,30.0,11111222 
NDBC,ioos:station:wmo:42039:1,2019-07-05T15:50:00Z,28.7390,-86.0060,30.2,11111222 
NDBC,ioos:station:wmo:42039:1,2019-07-05T16:50:00Z,28.7390,-86.0060,30.0,11111222 
NDBC,ioos:station:wmo:42039:1,2019-07-05T17:50:00Z,28.7390,-86.0060,29.1,11111222 
NDBC,ioos:station:wmo:42039:1,2019-07-05T18:50:00Z,28.7390,-86.0060,28.9,11111222 
NDBC,ioos:station:wmo:42039:1,2019-07-05T19:50:00Z,28.7390,-86.0060,29.0,11111222 
NDBC,ioos:station:wmo:42039:1,2019-07-05T20:50:00Z,28.7390,-86.0060,29.6,11111222 
NDBC,ioos:station:wmo:42039:1,2019-07-05T21:50:00Z,28.7390,-86.0060,29.9,11111222 
NDBC,ioos:station:wmo:42039:1,2019-07-05T22:50:00Z,28.7390,-86.0060,29.8,11111222 
NDBC,ioos:station:wmo:42039:1,2019-07-05T23:50:00Z,28.7390,-86.0060,29.6,11111222 
NDBC,ioos:station:wmo:42039:1,2019-07-06T00:50:00Z,28.7390,-86.0060,29.9,11111222 
NDBC,ioos:station:wmo:42039:1,2019-07-06T01:50:00Z,28.7390,-86.0060,29.8,11111222 
NDBC,ioos:station:wmo:42039:1,2019-07-06T02:50:00Z,28.7390,-86.0060,29.7,11111222 
NDBC,ioos:station:wmo:42039:1,2019-07-06T03:50:00Z,28.7390,-86.0060,29.8,11111222 
NDBC,ioos:station:wmo:42039:1,2019-07-06T04:50:00Z,28.7390,-86.0060,29.7,11111222 
NDBC,ioos:station:wmo:42039:1,2019-07-06T05:50:00Z,28.7390,-86.0060,29.9,11111222 
NDBC,ioos:station:wmo:42039:1,2019-07-06T06:50:00Z,28.7390,-86.0060,29.8,11111222 
NDBC,ioos:station:wmo:42039:1,2019-07-06T07:50:00Z,28.7390,-86.0060,29.6,11111222 
NDBC,ioos:station:wmo:42039:1,2019-07-06T08:50:00Z,28.7390,-86.0060,29.6,11111222 
NDBC,ioos:station:wmo:42039:1,2019-07-06T09:50:00Z,28.7390,-86.0060,29.6,11111222 
NDBC,ioos:station:wmo:42039:1,2019-07-06T10:50:00Z,28.7390,-86.0060,29.6,11111222 
NDBC,ioos:station:wmo:42039:1,2019-07-06T11:50:00Z,28.7390,-86.0060,28.9,11111222 
NDBC,ioos:station:wmo:42039:1,2019-07-06T12:50:00Z,28.7390,-86.0060,28.9,11111222 
NDBC,ioos:station:wmo:42039:1,2019-07-06T13:50:00Z,28.7390,-86.0060,29.2,11111222 
NDBC,ioos:station:wmo:42039:1,2019-07-06T14:50:00Z,28.7390,-86.0060,29.5,11111222 
NDBC,ioos:station:wmo:42039:1,2019-07-06T15:50:00Z,28.7390,-86.0060,29.5,11111222 
NDBC,ioos:station:wmo:42039:1,2019-07-06T16:50:00Z,28.7390,-86.0060,29.7,11111222 
NDBC,ioos:station:wmo:42039:1,2019-07-06T17:50:00Z,28.7390,-86.0060,29.7,11111222 
NDBC,ioos:station:wmo:42039:1,2019-07-06T18:50:00Z,28.7390,-86.0060,29.7,11111222 
NDBC,ioos:station:wmo:42039:1,2019-07-06T19:50:00Z,28.7390,-86.0060,27.7,11111222 
NDBC,ioos:station:wmo:42039:1,2019-07-06T20:50:00Z,28.7390,-86.0060,27.1,11111222 
NDBC,ioos:station:wmo:42039:1,2019-07-06T21:50:00Z,28.7390,-86.0060,27.9,11111222 
NDBC,ioos:station:wmo:42039:1,2019-07-06T22:50:00Z,28.7390,-86.0060,28.1,11111222 
NDBC,ioos:station:wmo:42039:1,2019-07-06T23:50:00Z,28.7390,-86.0060,28.5,11111222 
NDBC,ioos:station:wmo:42039:1,2019-07-07T00:50:00Z,28.7390,-86.0060,28.4,11111222 
NDBC,ioos:station:wmo:42039:1,2019-07-07T01:50:00Z,28.7390,-86.0060,28.6,11111222 
NDBC,ioos:station:wmo:42039:1,2019-07-07T02:50:00Z,28.7390,-86.0060,28.8,11111222 
NDBC,ioos:station:wmo:42039:1,2019-07-07T03:50:00Z,28.7390,-86.0060,29.0,11111222 
NDBC,ioos:station:wmo:42039:1,2019-07-07T04:50:00Z,28.7390,-86.0060,29.2,11111222 
NDBC,ioos:station:wmo:42039:1,2019-07-07T06:00:00Z,28.7390,-86.0060,29.4,11111222 
NDBC,ioos:station:wmo:42039:1,2019-07-07T06:50:00Z,28.7390,-86.0060,29.6,11111222 
NDBC,ioos:station:wmo:42039:1,2019-07-07T07:50:00Z,28.7390,-86.0060,29.2,11111222 
NDBC,ioos:station:wmo:42039:1,2019-07-07T08:50:00Z,28.7390,-86.0060,29.2,11111222 
NDBC,ioos:station:wmo:42039:1,2019-07-07T09:50:00Z,28.7390,-86.0060,29.4,11111222 
NDBC,ioos:station:wmo:42039:1,2019-07-07T10:50:00Z,28.7390,-86.0060,29.0,11111222 
NDBC,ioos:station:wmo:42039:1,2019-07-07T11:50:00Z,28.7390,-86.0060,28.2,11111222 
NDBC,ioos:station:wmo:42039:1,2019-07-07T12:50:00Z,28.7390,-86.0060,27.6,11111222 
NDBC,ioos:station:wmo:42039:1,2019-07-07T13:10:00Z,28.7390,-86.0060,25.8,11111222 
NDBC,ioos:station:wmo:42039:1,2019-07-07T15:50:00Z,28.7390,-86.0060,27.4,11111222 
NDBC,ioos:station:wmo:42039:1,2019-07-07T16:50:00Z,28.7390,-86.0060,28.2,11111222 
NDBC,ioos:station:wmo:42039:1,2019-07-07T17:50:00Z,28.7390,-86.0060,28.5,11111222 
NDBC,ioos:station:wmo:42039:1,2019-07-07T18:50:00Z,28.7390,-86.0060,28.6,11111222 
NDBC,ioos:station:wmo:42039:1,2019-07-07T19:50:00Z,28.7390,-86.0060,29.0,11111222 
NDBC,ioos:station:wmo:42039:1,2019-07-07T20:50:00Z,28.7390,-86.0060,29.7,11111222 
NDBC,ioos:station:wmo:42039:1,2019-07-07T21:50:00Z,28.7390,-86.0060,30.0,11111222 
NDBC,ioos:station:wmo:42039:1,2019-07-07T22:50:00Z,28.7390,-86.0060,30.1,11111222 
NDBC,ioos:station:wmo:42039:1,2019-07-07T23:50:00Z,28.7390,-86.0060,30.2,11111222 
NDBC,ioos:station:wmo:42039:1,2019-07-08T00:50:00Z,28.7390,-86.0060,30.0,11111222 
NDBC,ioos:station:wmo:42039:1,2019-07-08T01:40:00Z,28.7390,-86.0060,30.1,11111222 
NDBC,ioos:station:wmo:42039:1,2019-07-08T03:00:00Z,28.7390,-86.0060,30.1,11111222 
NDBC,ioos:station:wmo:42039:1,2019-07-08T03:50:00Z,28.7390,-86.0060,30.0,11111222 
NDBC,ioos:station:wmo:42039:1,2019-07-08T04:50:00Z,28.7390,-86.0060,29.9,11111222 
NDBC,ioos:station:wmo:42039:1,2019-07-08T05:50:00Z,28.7390,-86.0060,29.8,11111222 
NDBC,ioos:station:wmo:42039:1,2019-07-08T06:50:00Z,28.7390,-86.0060,29.9,11111222 
NDBC,ioos:station:wmo:42039:1,2019-07-08T07:50:00Z,28.7390,-86.0060,29.9,11111222 
NDBC,ioos:station:wmo:42039:1,2019-07-08T08:50:00Z,28.7390,-86.0060,28.5,11111222 
NDBC,ioos:station:wmo:42039:1,2019-07-08T09:50:00Z,28.7390,-86.0060,28.7,11111222 
NDBC,ioos:station:wmo:42039:1,2019-07-08T10:50:00Z,28.7390,-86.0060,29.5,11111222 
NDBC,ioos:station:wmo:42039:1,2019-07-08T11:50:00Z,28.7390,-86.0060,29.3,11111222 
NDBC,ioos:station:wmo:42039:1,2019-07-08T12:50:00Z,28.7390,-86.0060,29.2,11111222 
NDBC,ioos:station:wmo:42039:1,2019-07-08T13:30:00Z,28.7390,-86.0060,29.5,11111222 
NDBC,ioos:station:wmo:42039:1,2019-07-08T14:50:00Z,28.7390,-86.0060,29.6,11111222 
NDBC,ioos:station:wmo:42039:1,2019-07-08T15:50:00Z,28.7390,-86.0060,29.9,11111222 
NDBC,ioos:station:wmo:42039:1,2019-07-08T16:50:00Z,28.7390,-86.0060,30.0,11111222 
NDBC,ioos:station:wmo:42039:1,2019-07-08T18:00:00Z,28.7390,-86.0060,29.9,11111222 
NDBC,ioos:station:wmo:42039:1,2019-07-08T18:50:00Z,28.7390,-86.0060,29.9,11111222 
NDBC,ioos:station:wmo:42039:1,2019-07-08T19:50:00Z,28.7390,-86.0060,30.1,11111222 
NDBC,ioos:station:wmo:42039:1,2019-07-08T20:50:00Z,28.7390,-86.0060,30.1,11111222 
NDBC,ioos:station:wmo:42039:1,2019-07-08T21:50:00Z,28.7390,-86.0060,30.2,11111222 
NDBC,ioos:station:wmo:42039:1,2019-07-12T14:50:00Z,28.7390,-86.0060,26.9,11111222 
NDBC,ioos:station:wmo:42039:1,2019-07-14T18:50:00Z,28.7390,-86.0060,29.4,11111222 
NDBC,ioos:station:wmo:42039:1,2019-07-14T19:50:00Z,28.7390,-86.0060,29.3,11111222 
NDBC,ioos:station:wmo:42039:1,2019-07-14T20:50:00Z,28.7390,-86.0060,29.3,11111222 
NDBC,ioos:station:wmo:42039:1,2019-07-14T21:50:00Z,28.7390,-86.0060,29.3,11111222 
NDBC,ioos:station:wmo:42039:1,2019-07-14T22:50:00Z,28.7390,-86.0060,29.4,11111222 
NDBC,ioos:station:wmo:42039:1,2019-07-14T23:40:00Z,28.7390,-86.0060,29.4,11111222 
NDBC,ioos:station:wmo:42039:1,2019-07-15T00:50:00Z,28.7390,-86.0060,29.2,11111222 
NDBC,ioos:station:wmo:42039:1,2019-07-15T01:40:00Z,28.7390,-86.0060,29.2,11111222 
NDBC,ioos:station:wmo:42039:1,2019-07-15T02:50:00Z,28.7390,-86.0060,29.2,11111222 
NDBC,ioos:station:wmo:42039:1,2019-07-15T03:50:00Z,28.7390,-86.0060,29.0,11111222 
NDBC,ioos:station:wmo:42039:1,2019-07-15T04:50:00Z,28.7390,-86.0060,29.1,11111222 
NDBC,ioos:station:wmo:42039:1,2019-07-15T05:50:00Z,28.7390,-86.0060,29.0,11111222 
NDBC,ioos:station:wmo:42039:1,2019-07-15T06:50:00Z,28.7390,-86.0060,28.9,11111222 
NDBC,ioos:station:wmo:42039:1,2019-07-15T07:40:00Z,28.7390,-86.0060,28.8,11111222 
NDBC,ioos:station:wmo:42039:1,2019-07-15T08:50:00Z,28.7390,-86.0060,28.7,11111222 
NDBC,ioos:station:wmo:42039:1,2019-07-15T09:40:00Z,28.7390,-86.0060,28.7,11111222 
NDBC,ioos:station:wmo:42039:1,2019-07-15T10:20:00Z,28.7390,-86.0060,28.7,11111222 
NDBC,ioos:station:wmo:42039:1,2019-07-15T11:50:00Z,28.7390,-86.0060,28.8,11111222 
NDBC,ioos:station:wmo:42039:1,2019-07-15T12:40:00Z,28.7390,-86.0060,29.0,11111222 
NDBC,ioos:station:wmo:42039:1,2019-07-15T13:50:00Z,28.7390,-86.0060,29.0,11111222 
NDBC,ioos:station:wmo:42039:1,2019-07-15T14:50:00Z,28.7390,-86.0060,29.0,11111222 
NDBC,ioos:station:wmo:42039:1,2019-07-15T15:50:00Z,28.7390,-86.0060,29.1,11111222 
NDBC,ioos:station:wmo:42039:1,2019-07-15T16:50:00Z,28.7390,-86.0060,29.3,11111222 
NDBC,ioos:station:wmo:42039:1,2019-07-15T17:50:00Z,28.7390,-86.0060,29.4,11111222 
NDBC,ioos:station:wmo:42039:1,2019-07-15T18:50:00Z,28.7390,-86.0060,29.4,11111222 
NDBC,ioos:station:wmo:42039:1,2019-07-15T19:50:00Z,28.7390,-86.0060,29.4,11111222 
NDBC,ioos:station:wmo:42039:1,2019-07-15T20:50:00Z,28.7390,-86.0060,29.4,11111222 
NDBC,ioos:station:wmo:42039:1,2019-07-15T21:50:00Z,28.7390,-86.0060,29.6,11111222 
NDBC,ioos:station:wmo:42039:1,2019-07-15T22:50:00Z,28.7390,-86.0060,29.5,11111222 
NDBC,ioos:station:wmo:42039:1,2019-07-15T23:40:00Z,28.7390,-86.0060,29.3,11111222 
NDBC,ioos:station:wmo:42039:1,2019-07-16T00:50:00Z,28.7390,-86.0060,29.2,11111222 
NDBC,ioos:station:wmo:42039:1,2019-07-16T01:50:00Z,28.7390,-86.0060,29.2,11111222 
NDBC,ioos:station:wmo:42039:1,2019-07-16T02:50:00Z,28.7390,-86.0060,29.2,11111222 
NDBC,ioos:station:wmo:42039:1,2019-07-16T03:50:00Z,28.7390,-86.0060,29.1,11111222 
NDBC,ioos:station:wmo:42039:1,2019-07-16T04:50:00Z,28.7390,-86.0060,29.1,11111222 
NDBC,ioos:station:wmo:42039:1,2019-07-16T05:50:00Z,28.7390,-86.0060,29.0,11111222 
NDBC,ioos:station:wmo:42039:1,2019-07-16T06:40:00Z,28.7390,-86.0060,29.0,11111222 
NDBC,ioos:station:wmo:42039:1,2019-07-16T07:50:00Z,28.7390,-86.0060,28.9,11111222 
NDBC,ioos:station:wmo:42039:1,2019-07-16T08:50:00Z,28.7390,-86.0060,29.0,11111222 
NDBC,ioos:station:wmo:42039:1,2019-07-16T09:50:00Z,28.7390,-86.0060,29.1,11111222 
NDBC,ioos:station:wmo:42039:1,2019-07-16T10:40:00Z,28.7390,-86.0060,29.0,11111222 
NDBC,ioos:station:wmo:42039:1,2019-07-16T11:50:00Z,28.7390,-86.0060,29.3,11111222 
NDBC,ioos:station:wmo:42039:1,2019-07-16T12:50:00Z,28.7390,-86.0060,29.6,11111222 
NDBC,ioos:station:wmo:42039:1,2019-07-16T13:50:00Z,28.7390,-86.0060,29.6,11111222 
NDBC,ioos:station:wmo:42039:1,2019-07-16T14:50:00Z,28.7390,-86.0060,30.0,11111222 
NDBC,ioos:station:wmo:42039:1,2019-07-16T15:50:00Z,28.7390,-86.0060,30.7,11111222 
NDBC,ioos:station:wmo:42039:1,2019-07-16T16:50:00Z,28.7390,-86.0060,30.3,11111222 
NDBC,ioos:station:wmo:42039:1,2019-07-16T17:50:00Z,28.7390,-86.0060,30.2,11111222 
NDBC,ioos:station:wmo:42039:1,2019-07-16T18:50:00Z,28.7390,-86.0060,31.0,11111222 
NDBC,ioos:station:wmo:42039:1,2019-07-16T19:50:00Z,28.7390,-86.0060,30.5,11111222 
NDBC,ioos:station:wmo:42039:1,2019-07-16T20:50:00Z,28.7390,-86.0060,30.0,11111222 
NDBC,ioos:station:wmo:42039:1,2019-07-16T21:50:00Z,28.7390,-86.0060,30.2,11111222 
NDBC,ioos:station:wmo:42039:1,2019-07-16T22:50:00Z,28.7390,-86.0060,30.3,11111222 
NDBC,ioos:station:wmo:42039:1,2019-07-16T23:50:00Z,28.7390,-86.0060,30.2,11111222 
NDBC,ioos:station:wmo:42039:1,2019-07-17T00:50:00Z,28.7390,-86.0060,30.1,11111222 
NDBC,ioos:station:wmo:42039:1,2019-07-17T01:50:00Z,28.7390,-86.0060,29.2,11111222 
NDBC,ioos:station:wmo:42039:1,2019-07-17T02:50:00Z,28.7390,-86.0060,29.8,11111222 
NDBC,ioos:station:wmo:42039:1,2019-07-17T03:50:00Z,28.7390,-86.0060,29.8,11111222 
NDBC,ioos:station:wmo:42039:1,2019-07-17T04:50:00Z,28.7390,-86.0060,29.7,11111222 
NDBC,ioos:station:wmo:42039:1,2019-07-17T05:50:00Z,28.7390,-86.0060,29.6,11111222 
NDBC,ioos:station:wmo:42039:1,2019-07-17T06:50:00Z,28.7390,-86.0060,29.5,11111222 
NDBC,ioos:station:wmo:42039:1,2019-07-17T07:50:00Z,28.7390,-86.0060,29.3,11111222 
NDBC,ioos:station:wmo:42039:1,2019-07-17T08:50:00Z,28.7390,-86.0060,29.2,11111222 
NDBC,ioos:station:wmo:42039:1,2019-07-17T09:50:00Z,28.7390,-86.0060,29.1,11111222 
NDBC,ioos:station:wmo:42039:1,2019-07-17T10:40:00Z,28.7390,-86.0060,29.0,11111222 
NDBC,ioos:station:wmo:42039:1,2019-07-17T11:50:00Z,28.7390,-86.0060,29.3,11111222 
NDBC,ioos:station:wmo:42039:1,2019-07-17T12:50:00Z,28.7390,-86.0060,29.4,11111222 
NDBC,ioos:station:wmo:42039:1,2019-07-17T13:50:00Z,28.7390,-86.0060,29.4,11111222 
NDBC,ioos:station:wmo:42039:1,2019-07-17T14:40:00Z,28.7390,-86.0060,29.4,11111222 
NDBC,ioos:station:wmo:42039:1,2019-07-17T15:50:00Z,28.7390,-86.0060,29.9,11111222 
NDBC,ioos:station:wmo:42039:1,2019-07-17T16:50:00Z,28.7390,-86.0060,29.9,11111222 
NDBC,ioos:station:wmo:42039:1,2019-07-17T17:50:00Z,28.7390,-86.0060,30.2,11111222 
NDBC,ioos:station:wmo:42039:1,2019-07-18T16:50:00Z,28.7390,-86.0060,29.0,11111222 
NDBC,ioos:station:wmo:42039:1,2019-07-18T17:50:00Z,28.7390,-86.0060,29.2,11111222 
NDBC,ioos:station:wmo:42039:1,2019-07-18T18:50:00Z,28.7390,-86.0060,29.3,11111222 
NDBC,ioos:station:wmo:42039:1,2019-07-18T19:50:00Z,28.7390,-86.0060,29.3,11111222 
NDBC,ioos:station:wmo:42039:1,2019-07-18T20:50:00Z,28.7390,-86.0060,29.7,11111222 
NDBC,ioos:station:wmo:42039:1,2019-07-18T21:50:00Z,28.7390,-86.0060,29.6,11111222 
NDBC,ioos:station:wmo:42039:1,2019-07-18T22:50:00Z,28.7390,-86.0060,29.5,11111222 
NDBC,ioos:station:wmo:42039:1,2019-07-18T23:50:00Z,28.7390,-86.0060,29.4,11111222 
NDBC,ioos:station:wmo:42039:1,2019-07-19T00:50:00Z,28.7390,-86.0060,29.4,11111222 
NDBC,ioos:station:wmo:42039:1,2019-07-19T01:50:00Z,28.7390,-86.0060,29.3,11111222 
NDBC,ioos:station:wmo:42039:1,2019-07-19T02:50:00Z,28.7390,-86.0060,29.4,11111222 
NDBC,ioos:station:wmo:42039:1,2019-07-19T04:50:00Z,28.7390,-86.0060,29.2,11111222 
NDBC,ioos:station:wmo:42039:1,2019-07-19T05:50:00Z,28.7390,-86.0060,29.1,11111222 
NDBC,ioos:station:wmo:42039:1,2019-07-19T06:50:00Z,28.7390,-86.0060,29.0,11111222 
NDBC,ioos:station:wmo:42039:1,2019-07-19T07:50:00Z,28.7390,-86.0060,29.0,11111222 
NDBC,ioos:station:wmo:42039:1,2019-07-19T08:50:00Z,28.7390,-86.0060,29.0,11111222 
NDBC,ioos:station:wmo:42039:1,2019-07-19T09:50:00Z,28.7390,-86.0060,28.9,11111222 
NDBC,ioos:station:wmo:42039:1,2019-07-19T10:50:00Z,28.7390,-86.0060,29.0,11111222 
NDBC,ioos:station:wmo:42039:1,2019-07-19T11:50:00Z,28.7390,-86.0060,29.1,11111222 
NDBC,ioos:station:wmo:42039:1,2019-07-19T12:00:00Z,28.7390,-86.0060,29.1,11111222 
NDBC,ioos:station:wmo:42039:1,2019-07-19T14:50:00Z,28.7390,-86.0060,30.2,11111222 
NDBC,ioos:station:wmo:42039:1,2019-07-19T20:50:00Z,28.7390,-86.0060,29.7,11111222 
NDBC,ioos:station:wmo:42039:1,2019-07-19T21:50:00Z,28.7390,-86.0060,29.7,11111222 
NDBC,ioos:station:wmo:42039:1,2019-07-19T22:50:00Z,28.7390,-86.0060,29.6,11111222 
NDBC,ioos:station:wmo:42039:1,2019-07-19T23:50:00Z,28.7390,-86.0060,29.6,11111222 
NDBC,ioos:station:wmo:42039:1,2019-07-20T00:50:00Z,28.7390,-86.0060,29.4,11111222 
NDBC,ioos:station:wmo:42039:1,2019-07-20T01:50:00Z,28.7390,-86.0060,29.4,11111222 